Time,TemperatureF,DewpointF,PressureIn,WindDirection,WindDirectionDegrees,WindSpeedMPH,WindSpeedGustMPH,Humidity,HourlyPrecipIn,Conditions,Clouds,dailyrainin,SoftwareType,DateUTC
2013-02-19 06:30:00,36.5,21.0,29.71,South,174,12.0,14.0,53,0.00,,,0.00,Wunderground v.1.15,2013-02-19 14:30:00,
2013-02-19 06:35:00,36.3,20.8,29.71,South,181,13.0,16.0,53,0.00,,,0.00,Wunderground v.1.15,2013-02-19 14:35:00,
2013-02-19 06:39:00,36.2,20.7,29.71,South,179,12.0,16.0,53,0.00,,,0.00,Wunderground v.1.15,2013-02-19 14:39:00,
2013-02-19 06:44:00,36.0,20.5,29.71,SE,128,11.0,16.0,53,0.00,,,0.00,Wunderground v.1.15,2013-02-19 14:44:00,
2013-02-19 06:49:00,35.8,20.3,29.72,ESE,107,12.0,13.0,53,0.00,,,0.00,Wunderground v.1.15,2013-02-19 14:49:00,
2013-02-19 06:55:00,35.6,21.0,29.72,SE,140,11.0,13.0,55,0.00,,,0.00,Wunderground v.1.15,2013-02-19 14:55:00,
2013-02-19 07:01:00,35.3,20.3,29.72,SSE,160,9.0,13.0,54,0.00,,,0.00,Wunderground v.1.15,2013-02-19 15:01:00,
2013-02-19 07:08:00,35.2,20.2,29.72,South,181,9.0,15.0,54,0.00,,,0.00,Wunderground v.1.15,2013-02-19 15:08:00,
2013-02-19 07:13:00,35.2,19.8,29.72,SE,130,10.0,14.0,53,0.00,,,0.00,Wunderground v.1.15,2013-02-19 15:13:00,
2013-02-19 07:19:00,35.0,19.6,29.72,South,179,10.0,10.0,53,0.00,,,0.00,Wunderground v.1.15,2013-02-19 15:19:00,
2013-02-19 07:26:00,34.9,19.5,29.72,ESE,121,9.0,14.0,53,0.00,,,0.00,Wunderground v.1.15,2013-02-19 15:26:00,
2013-02-19 07:31:00,34.9,19.9,29.72,SE,133,9.0,10.0,54,0.00,,,0.00,Wunderground v.1.15,2013-02-19 15:31:00,
2013-02-19 07:38:00,35.0,18.7,29.72,ESE,106,9.0,14.0,51,0.00,,,0.00,Wunderground v.1.15,2013-02-19 15:38:00,
2013-02-19 07:43:00,35.3,19.0,29.72,SE,138,9.0,11.0,51,0.00,,,0.00,Wunderground v.1.15,2013-02-19 15:43:00,
2013-02-19 07:50:00,35.6,18.8,29.72,ESE,112,9.0,10.0,50,0.00,,,0.00,Wunderground v.1.15,2013-02-19 15:50:00,
2013-02-19 07:55:00,35.8,19.4,29.72,SSE,150,9.0,10.0,51,0.00,,,0.00,Wunderground v.1.15,2013-02-19 15:55:00,
2013-02-19 08:01:00,35.9,19.5,29.70,SSE,158,8.0,8.0,51,0.00,,,0.00,Wunderground v.1.15,2013-02-19 16:01:00,
2013-02-19 08:08:00,36.3,19.4,29.70,SE,141,8.0,8.0,50,0.00,,,0.00,Wunderground v.1.15,2013-02-19 16:08:00,
2013-02-19 08:13:00,36.8,19.4,29.70,SE,133,8.0,9.0,49,0.00,,,0.00,Wunderground v.1.15,2013-02-19 16:13:00,
2013-02-19 08:19:00,37.0,19.1,29.70,SSE,161,8.0,10.0,48,0.00,,,0.00,Wunderground v.1.15,2013-02-19 16:19:00,
2013-02-19 08:26:00,37.3,18.9,29.70,ESE,114,10.0,13.0,47,0.00,,,0.00,Wunderground v.1.15,2013-02-19 16:26:00,
2013-02-19 08:32:00,37.6,19.2,29.69,SE,143,9.0,10.0,47,0.00,,,0.00,Wunderground v.1.15,2013-02-19 16:32:00,
2013-02-19 08:38:00,37.8,17.8,29.69,SSE,150,10.0,17.0,44,0.00,,,0.00,Wunderground v.1.15,2013-02-19 16:38:00,
2013-02-19 08:43:00,38.0,18.0,29.69,SSE,150,11.0,17.0,44,0.00,,,0.00,Wunderground v.1.15,2013-02-19 16:43:00,
2013-02-19 08:50:00,38.2,17.6,29.68,SSE,160,10.0,10.0,43,0.00,,,0.00,Wunderground v.1.15,2013-02-19 16:50:00,
2013-02-19 19:22:00,28.4,12.6,29.66,East,90,1.0,15.0,51,0.00,,,0.00,Wunderground v.1.15,2013-02-20 03:22:00,
2013-02-19 21:10:00,30.0,18.2,29.67,North,354,2.0,2.0,61,0.00,,,0.00,Wunderground v.1.15,2013-02-20 05:10:00,
2013-02-19 21:11:00,30.0,18.2,29.67,NNE,24,2.0,2.0,61,0.00,,,0.00,Wunderground v.1.15,2013-02-20 05:11:00,
2013-02-19 21:18:00,30.0,18.5,29.68,NE,45,2.0,2.0,62,0.00,,,0.00,Wunderground v.1.15,2013-02-20 05:18:00,